Regional Weather Roundup
Issued by NWS

Home | Current Version | Previous Version | Graphics & Text | Print | Product List | Glossary On
Versions: 1 2 3 4 5 6 7 8 9 10 11 12 13 14 15 16 17 18 19 20 21 22 23 24 25 26 27 28 29 30 31 32 33 34 35 36 37 38 39 40 41 42 43 44 45 46 47 48 49 50
000
ASUS45 KPSR 272010
RWRAZ

ARIZONA REGIONAL HOURLY WEATHER ROUNDUP
NATIONAL WEATHER SERVICE TUCSON AZ
100 PM MST TUE JUN 27 2017

NOTE: FAIR INDICATES FEW OR NO CLOUDS BELOW 12,000 FEET WITH NO
SIGNIFICANT WEATHER AND/OR OBSTRUCTIONS TO VISIBILITY.

AZZ001>003-036-272100-
NORTHWEST ARIZONA

CITY           SKY/WX    TMP DP  RH WIND       PRES   REMARKS
BULLHEAD CITY  SUNNY    106  23   5 S10       29.73F
KINGMAN        SUNNY     96  24   7 SW18G30   29.95F
$$

AZZ004>008-015-016-018-272100-
NORTH CENTRAL ARIZONA

CITY           SKY/WX    TMP DP  RH WIND       PRES   REMARKS
GRAND CANYON   SUNNY     86   4   4 SW23G33   30.15F
PRESCOTT       SUNNY     91   4   4 S22G29    30.08F
FLAGSTAFF      SUNNY     82  18   9 SW17G30   30.21F
PAYSON         CLEAR     91  19   7 S14G21    30.13F
PAGE           SUNNY     97  17   5 VRB6G17   29.90F
$$

AZZ009>014-017-272100-
NORTHEAST ARIZONA

CITY           SKY/WX    TMP DP  RH WIND       PRES   REMARKS
WINSLOW        SUNNY     99  11   4 SW22G29   30.03F
SAINT JOHNS    SUNNY     93  26   9 SW22G31   30.09F
WINDOW ROCK    SUNNY     90  26  10 SW23G35   30.16F
SHOW LOW       SUNNY     86  27  11 SW28      30.19F
$$

AZZ023-272100-
GREATER PHOENIX AREA

CITY           SKY/WX    TMP DP  RH WIND       PRES   REMARKS
PHOENIX        MOSUNNY  109  25   5 SW17G23   29.79F HX 101
BUCKEYE          N/A    106  23   5 SW13      29.79F
GLENDALE       SUNNY    108  27   6 SW12G20   29.81F HX 100
LUKE AFB       MOSUNNY  105  26   6 SW17      29.78F
DEER VALLEY    SUNNY    105  25   6 SW15      29.81F
SCOTTSDALE     SUNNY    105  28   7 S9        29.83F
MESA-FALCON    SUNNY    108  34   8 MISG      29.82F HX 100
MESA-GATEWAY   SUNNY    106  23   5 SW12G23   29.83F
CHANDLER       SUNNY    106  18   4 SW16      29.81F
$$

AZZ027-028-272100-
SOUTHWEST MARICOPA COUNTY AND PINAL COUNTY

CITY           SKY/WX    TMP DP  RH WIND       PRES   REMARKS
CASA GRANDE    SUNNY    106  30   7 W14G20    29.83F
$$

AZZ503-504-507>509-272100-
SOUTHEAST ARIZONA

CITY           SKY/WX    TMP DP  RH WIND       PRES   REMARKS
TUCSON         SUNNY    104  31   8 SW10      29.95F
DAVIS-MONTHAN  MOSUNNY  103  30   8 W8G20     29.94F
RYAN FIELD     CLEAR    104  34   9 W12G20    29.93F
NOGALES        SUNNY     98  37  12 VRB6G20   30.05F
SIERRA VISTA   MOSUNNY   95  30  10 W10       30.12F
DOUGLAS        PTSUNNY   98  39  13 VRB5      30.04F
SAFFORD        SUNNY    101  39  12 W10G18    29.94F
$$

AZZ020-021-025-026-031-272100-
SOUTHWEST ARIZONA

CITY           SKY/WX    TMP DP  RH WIND       PRES   REMARKS
YUMA           SUNNY    108  47  13 W9        29.75F HX 104
$$

CAZ031-033-041-043-047-048-061-272100-
SOUTHERN CALIFORNIA

CITY           SKY/WX    TMP DP  RH WIND       PRES   REMARKS
DOWNTOWN L.A.  SUNNY     87  60  40 CALM      29.86F
L.A. AIRPORT   SUNNY     75  61  61 SW12      29.89F
SAN DIEGO      MOSUNNY   79  63  57 NW7       29.91S
BURBANK        SUNNY     91  40  16 SE12      29.88F
ONTARIO        SUNNY     96  35  11 SW9       29.88F
RIVERSIDE      SUNNY     97  40  14 VRB5      29.87F
PALM SPRINGS   SUNNY    112  17   3 N13G18    29.75F HX 103
EL CENTRO NAS  SUNNY    109   8   2 W8        29.73F
IMPERIAL       SUNNY    111  28   5 SW7       29.71F HX 103
BLYTHE         SUNNY    109  19   4 SE10      29.74F HX 100
NEEDLES        SUNNY    108  11   3 VRB7      29.75F
$$

NVZ020-UTZ003-272100-
SOUTHERN NEVADA-UTAH

CITY           SKY/WX    TMP DP  RH WIND       PRES   REMARKS
LAS VEGAS      SUNNY    102  13   4 SE8       29.80F
SALT LAKE CITY MOSUNNY   88  36  15 NW15G24   29.94S
$$

NMZ009-TXZ055-272100-
NEW MEXICO-WEST TEXAS

CITY           SKY/WX    TMP DP  RH WIND       PRES   REMARKS
ALBUQUERQUE    MOSUNNY   90  39  16 S7        30.08F
EL PASO        MOSUNNY   91  52  26 SW6       30.05F
$$


........................KEY........................
SKY/WX - SKY CONDITION/WEATHER
TMP    - TEMPERATURE IN FAHRENHEIT
DP     - DEWPOINT IN FAHRENHEIT
RH     - RELATIVE HUMIDITY IN PERCENT
WIND   - DIRECTION AND SPEED IN MILES PER HOUR (MPH)
VRB    - VARIABLE WIND DIRECTION
PRES   - MEAN SEA LEVEL PRESSURE IN INCHES OF MERCURY
         F - FALLING PRESSURE   R - RISING PRESSURE
         S - STEADY PRESSURE
VSB    - VISIBILITY IN MILES
HX     - HEAT INDEX IN FAHRENHEIT
WCI    - WIND CHILL INDEX IN FAHRENHEIT
TC     - TEMPERATURE IN CELSIUS WHICH IS ALSO KNOWN AS
         TEMPERATURE IN CENTIGRADE
AFB    - AIR FORCE BASE
         LUKE AFB IS LUKE AIR FORCE BASE
         DAVIS-MONTHAN IS DAVIS-MONTHAN AIR FORCE BASE
NAS    - NAVAL AIR STATION
         EL CENTRO NAS IS EL CENTRO NAVAL AIR STATION
N/A    - NOT AVAILABLE





USA.gov is the U.S. government's official web portal to all federal, state and local government web resources and services.